N0OQA Weather Reports


Display with metric or nautical units.
time (UTC)temp
F
wind
direction
speed
MPH
gust
MPH
rain 1hr
in
rain 24hr
in
rain mn
in
humidity
%
barometer
mb
20240624004106 79 325 5.0 8.0 0.00 0.00 0.00 52 1013.1
20240624002603 80 345 5.0 7.0 0.00 0.00 0.00 51 1013.1
20240623235101 80 316 10.0 15.0 0.00 0.00 0.00 49 1012.9
20240623234601 80 309 7.0 13.0 0.00 0.00 0.00 50 1012.9
20240623234101 80 321 9.0 13.0 0.00 0.00 0.00 48 1012.9
20240623233601 80 328 6.0 9.0 0.00 0.00 0.00 50 1012.9
20240623232100 81 321 10.0 17.0 0.00 0.00 0.00 47 1012.9
20240623231559 81 328 9.0 11.0 0.00 0.00 0.00 48 1012.9
20240623231059 81 322 9.0 15.0 0.00 0.00 0.00 46 1012.9
20240623230058 81 3 8.0 11.0 0.00 0.00 0.00 47 1012.9
20240623225558 81 323 15.0 24.0 0.00 0.00 0.00 45 1012.9
20240623225058 81 322 11.0 18.0 0.00 0.00 0.00 47 1013.0
20240623223557 81 333 11.0 15.0 0.00 0.00 0.00 48 1012.9
20240623222556 81 321 9.0 13.0 0.00 0.00 0.00 47 1012.8
20240623222056 81 297 12.0 20.0 0.00 0.00 0.00 46 1012.8
20240623221556 81 330 13.0 19.0 0.00 0.00 0.00 46 1012.8
20240623220555 82 290 8.0 11.0 0.00 0.00 0.00 45 1012.7
20240623220055 81 325 7.0 11.0 0.00 0.00 0.00 46 1012.7
20240623215555 81 346 7.0 11.0 0.00 0.00 0.00 47 1012.6
20240623214554 80 319 5.0 7.0 0.00 0.00 0.00 47 1012.6
20240623212553 82 319 12.0 21.0 0.00 0.00 0.00 46 1012.5
20240623212053 81 318 12.0 20.0 0.00 0.00 0.00 45 1012.3
20240623211052 82 316 8.0 16.0 0.00 0.00 0.00 44 1012.6
20240623205551 82 325 6.0 12.0 0.00 0.00 0.00 46 1012.4
20240623205051 82 322 9.0 13.0 0.00 0.00 0.00 45 1012.5
20240623204050 81 352 7.0 11.0 0.00 0.00 0.00 47 1012.5
20240623194547 80 290 7.0 10.0 0.00 0.00 0.00 51 1012.7
20240623194046 80 307 9.0 16.0 0.00 0.00 0.00 48 1012.7
20240623193046 80 330 9.0 11.0 0.00 0.00 0.00 48 1012.7
20240623192045 80 322 7.0 10.0 0.00 0.00 0.00 49 1012.7
20240623191545 80 300 8.0 10.0 0.00 0.00 0.00 48 1012.8
20240623191044 80 325 9.0 11.0 0.00 0.00 0.00 49 1012.7
20240623190044 80 330 13.0 20.0 0.00 0.00 0.00 49 1012.9
20240623185543 80 318 9.0 17.0 0.00 0.00 0.00 48 1013.0
20240623183040 80 298 5.0 6.0 0.00 0.00 0.00 53 1013.0
20240623182540 79 322 10.0 16.0 0.00 0.00 0.00 51 1013.1
20240623182040 80 298 8.0 11.0 0.00 0.00 0.00 51 1012.8
20240623181540 79 343 6.0 9.0 0.00 0.00 0.00 55 1013.1
20240623181039 80 335 9.0 12.0 0.00 0.00 0.00 53 1013.1
20240623180039 79 328 7.0 10.0 0.00 0.00 0.00 56 1013.2
20240623175538 79 300 5.0 7.0 0.00 0.00 0.00 57 1013.2
20240623175038 78 326 6.0 9.0 0.00 0.00 0.00 58 1013.2
20240623174538 78 316 8.0 10.0 0.00 0.00 0.00 58 1013.2
20240623174037 78 332 6.0 8.0 0.00 0.00 0.00 61 1013.3
20240623173537 78 323 5.0 8.0 0.00 0.00 0.00 61 1013.3
20240623173037 77 328 8.0 10.0 0.00 0.00 0.00 63 1013.3
20240623172036 77 340 6.0 9.0 0.00 0.00 0.00 64 1013.4
20240623171536 77 336 5.0 7.0 0.00 0.00 0.00 65 1013.6
20240623170535 76 319 8.0 12.0 0.00 0.00 0.00 67 1013.6
20240623165034 74 319 9.0 12.0 0.00 0.00 0.00 71 1013.4
20240623164534 74 325 6.0 10.0 0.00 0.00 0.00 71 1013.6
20240623163533 73 319 9.0 13.0 0.00 0.00 0.00 74 1013.6
20240623163033 73 326 7.0 9.0 0.00 0.00 0.00 75 1013.7
20240623162532 73 314 9.0 14.0 0.00 0.00 0.00 77 1013.6
20240623162032 73 325 9.0 12.0 0.00 0.00 0.00 77 1013.6
20240623160531 72 338 5.0 7.0 0.00 0.00 0.00 83 1013.6
20240623160031 71 338 6.0 7.0 0.00 0.00 0.31 85 1013.6
20240623154529 70 318 7.0 10.0 0.00 0.00 0.31 87 1013.7
20240623154029 70 309 7.0 9.0 0.00 0.00 0.31 88 1013.7
20240623153529 69 322 8.0 14.0 0.00 0.00 0.31 90 1013.7
20240623152528 69 322 6.0 8.0 0.00 0.00 0.31 90 1013.7
20240623152028 69 293 5.0 7.0 0.00 0.00 0.31 91 1013.3
20240623151528 68 330 7.0 10.0 0.00 0.00 0.31 91 1013.7
20240623151027 68 294 4.0 5.0 0.00 0.00 0.31 92 1013.8
20240623150527 68 294 5.0 6.0 0.00 0.00 0.31 92 1013.7
20240623150027 68 246 3.0 5.0 0.00 0.00 0.31 93 1013.8
20240623145526 67 287 5.0 6.0 0.00 0.00 0.31 93 1013.8
20240623145026 67 242 5.0 6.0 0.00 0.00 0.31 93 1013.8
20240623144526 67 312 5.0 9.0 0.00 0.00 0.31 94 1013.8
20240623143525 67 203 5.0 7.0 0.00 0.00 0.31 96 1013.6
20240623143025 66 0 0.0 0.0 0.00 0.00 0.31 99 1013.7
20240623142525 66 283 3.0 4.0 0.00 0.00 0.31 99 1013.7
20240623141523 65 262 1.0 3.0 0.00 0.00 0.31 100 1013.8
20240623141023 64 222 4.0 6.0 0.00 0.00 0.31 100 1013.8
20240623140522 64 229 4.0 6.0 0.00 0.00 0.31 100 1013.8
20240623135522 63 208 4.0 5.0 0.00 0.00 0.31 100 1013.9
20240623135022 62 233 4.0 5.0 0.00 0.00 0.31 100 1014.0
20240623134521 62 195 0.0 3.0 0.00 0.00 0.31 100 1014.0
20240623133521 61 225 3.0 3.0 0.00 0.00 0.31 100 1014.1
20240623133020 61 0 0.0 0.0 0.00 0.00 0.31 100 1014.1
20240623132520 60 0 0.0 0.0 0.00 0.00 0.31 100 1014.1
20240623132020 60 0 0.0 0.0 0.00 0.00 0.31 100 1014.0
20240623131520 60 0 0.0 0.0 0.00 0.00 0.31 100 1014.1
20240623131019 59 0 0.0 0.0 0.00 0.00 0.31 100 1014.1
20240623130519 59 0 0.0 0.0 0.00 0.00 0.31 100 1014.1
20240623125518 59 0 0.0 0.0 0.00 0.00 0.31 100 1014.1
20240623125018 59 0 0.0 0.0 0.00 0.00 0.31 100 1014.1
20240623124518 59 0 0.0 0.0 0.00 0.00 0.31 100 1014.1
20240623124017 59 0 0.0 0.0 0.00 0.00 0.31 100 1014.2
20240623123517 58 0 0.0 0.0 0.00 0.00 0.31 100 1014.0
20240623123017 58 0 0.0 0.0 0.00 0.00 0.31 100 1014.1
20240623122016 58 0 0.0 0.0 0.00 0.00 0.31 100 1012.8
20240623114013 57 0 0.0 0.0 0.00 0.00 0.31 100 1014.0
20240623113512 56 0 0.0 0.0 0.00 0.00 0.31 100 1013.9
20240623112512 56 0 0.0 0.0 0.00 0.00 0.31 100 1013.9
20240623111511 56 0 0.0 0.0 0.00 0.00 0.31 100 1013.8
20240623111011 56 0 0.0 0.0 0.00 0.00 0.31 100 1013.7
20240623110511 56 0 0.0 0.0 0.00 0.00 0.31 100 1013.7
20240623110010 56 0 0.0 0.0 0.00 0.00 0.31 100 1013.6
20240623105510 55 0 0.0 0.0 0.00 0.00 0.31 100 1013.7
20240623105010 55 0 0.0 0.0 0.00 0.00 0.31 100 1013.7
20240623104509 55 0 0.0 0.0 0.00 0.00 0.31 100 1013.4
20240623104008 55 0 0.0 0.0 0.00 0.00 0.31 100 1013.4
20240623103508 55 0 0.0 0.0 0.00 0.00 0.31 100 1013.4
20240623103007 54 0 0.0 0.0 0.00 0.00 0.31 100 1013.4
20240623101506 55 0 0.0 0.0 0.00 0.00 0.31 100 1013.2
20240623101006 55 0 0.0 0.0 0.00 0.00 0.31 100 1013.2
20240623100506 55 0 0.0 0.0 0.00 0.00 0.31 100 1013.1
20240623095505 55 0 0.0 0.0 0.00 0.00 0.31 100 1013.0
20240623094505 55 0 0.0 0.0 0.00 0.00 0.31 100 1013.1
20240623094004 55 0 0.0 0.0 0.00 0.00 0.31 100 1013.1
20240623093504 55 0 0.0 0.0 0.00 0.00 0.31 100 1013.1
20240623093004 55 0 0.0 0.0 0.00 0.00 0.31 100 1013.1
20240623092502 55 0 0.0 0.0 0.00 0.00 0.31 100 1013.1
20240623090501 55 0 0.0 0.0 0.00 0.00 0.31 100 1013.2
20240623085459 55 0 0.0 0.0 0.00 0.00 0.31 100 1013.2
20240623084458 54 0 0.0 0.0 0.00 0.00 0.31 100 1013.3
20240623083958 54 0 0.0 0.0 0.00 0.00 0.31 100 1013.3
20240623083457 54 0 0.0 0.0 0.00 0.00 0.31 100 1013.3
20240623082957 54 0 0.0 0.0 0.00 0.00 0.31 100 1013.6
20240623082457 54 321 4.0 5.0 0.00 0.00 0.31 100 1013.6
20240623081956 54 0 0.0 0.0 0.00 0.00 0.31 100 1013.3
20240623080956 54 322 4.0 5.0 0.00 0.00 0.31 100 1013.3
20240623080456 54 0 0.0 0.0 0.00 0.00 0.31 100 1013.3
20240623075955 54 0 0.0 0.0 0.00 0.00 0.31 100 1013.1
20240623074955 54 0 0.0 0.0 0.00 0.00 0.31 100 1012.9
20240623074454 54 0 0.0 0.0 0.00 0.00 0.31 100 1012.5
20240623073954 54 0 0.0 0.0 0.00 0.00 0.31 100 1012.6
20240623073454 54 0 0.0 0.0 0.00 0.00 0.31 100 1012.6
20240623072953 54 0 0.0 0.0 0.00 0.00 0.31 100 1012.7
20240623072453 54 0 0.0 0.0 0.00 0.00 0.31 100 1012.7
20240623071953 54 0 0.0 0.0 0.00 0.00 0.31 100 1012.8
20240623071453 55 0 0.0 0.0 0.00 0.00 0.31 100 1012.8
20240623070952 55 0 0.0 0.0 0.00 0.00 0.31 100 1012.9
20240623064951 55 0 0.0 0.0 0.00 0.00 0.31 100 1013.2
20240623064451 55 0 0.0 0.0 0.00 0.00 0.31 100 1013.1
20240623063951 55 319 2.0 3.0 0.00 0.00 0.31 100 1013.1
20240623062950 55 314 3.0 3.0 0.00 0.00 0.31 100 1013.1
20240623062450 55 0 0.0 0.0 0.00 0.00 0.31 100 1013.1
20240623061949 55 0 0.0 0.0 0.00 0.00 0.31 100 1013.1
20240623061449 55 0 0.0 0.0 0.00 0.00 0.31 100 1013.3
20240623060949 55 0 0.0 0.0 0.00 0.00 0.31 99 1013.2
20240623060449 55 0 0.0 0.0 0.00 0.00 0.31 99 1013.2
20240623055448 55 0 0.0 0.0 0.00 0.00 0.31 99 1013.2
20240623054948 55 0 0.0 0.0 0.00 0.00 0.31 99 1013.2
20240623054447 55 0 0.0 0.0 0.00 0.00 0.31 98 1013.2
20240623053947 56 0 0.0 0.0 0.00 0.00 0.31 98 1013.2
20240623053447 56 0 0.0 0.0 0.00 0.00 0.31 98 1013.2
20240623052947 56 321 3.0 4.0 0.00 0.00 0.31 98 1013.1
20240623052446 56 338 3.0 4.0 0.00 0.00 0.31 97 1013.1
20240623051946 56 0 0.0 0.0 0.00 0.00 0.31 97 1013.0
20240623051446 56 0 0.0 0.0 0.00 0.00 0.31 97 1013.0
20240623050945 56 0 0.0 0.0 0.00 0.00 0.31 96 1013.0
20240623050445 56 338 3.0 5.0 0.00 0.00 0.31 96 1013.2
20240623045945 56 318 3.0 5.0 0.00 0.00 0.31 96 1013.2
20240623045441 56 326 5.0 6.0 0.00 0.00 0.31 96 1013.3
20240623044442 56 345 4.0 5.0 0.00 0.00 0.31 96 1013.1
20240623043440 56 6 2.0 4.0 0.00 0.00 0.31 96 1013.4
20240623042939 56 0 0.0 0.0 0.00 0.00 0.31 96 1013.4
20240623041939 56 30 1.0 2.0 0.00 0.00 0.31 95 1013.4
20240623041439 57 322 3.0 4.0 0.00 0.00 0.31 95 1013.4
20240623040938 57 309 3.0 5.0 0.00 0.00 0.31 95 1013.3
20240623040438 57 4 3.0 4.0 0.00 0.00 0.31 95 1013.2
20240623035938 57 42 0.0 2.0 0.00 0.00 0.31 95 1013.1
20240623035437 57 7 7.0 9.0 0.00 0.00 0.31 95 1013.2
20240623034937 57 23 7.0 10.0 0.00 0.00 0.31 95 1013.1
20240623034437 57 21 7.0 11.0 0.00 0.00 0.31 96 1013.0
20240623033936 57 11 8.0 12.0 0.00 0.00 0.31 96 1013.0
20240623032436 58 3 7.0 11.0 0.00 0.00 0.31 97 1013.0
20240623031935 58 15 8.0 11.0 0.00 0.00 0.31 97 1012.6
20240623031435 58 311 11.0 17.0 0.00 0.00 0.31 97 1012.8
20240623030935 58 14 9.0 12.0 0.00 0.00 0.31 97 1012.7
20240623030435 58 17 9.0 13.0 0.00 0.00 0.31 97 1012.7
20240623025434 59 24 9.0 13.0 0.00 0.00 0.31 98 1012.4
20240623024934 59 14 9.0 12.0 0.00 0.00 0.31 98 1012.4
20240623023932 60 312 10.0 13.0 0.00 0.00 0.31 99 1012.3
20240623022431 61 316 10.0 16.0 0.00 0.00 0.31 99 1012.1
20240623021931 61 11 8.0 12.0 0.00 0.00 0.31 99 1011.9
20240623020930 61 314 10.0 13.0 0.00 0.00 0.31 99 1011.9
20240623020430 61 17 9.0 13.0 0.00 0.00 0.31 99 1011.9
20240623014929 63 4 7.0 8.0 0.00 0.00 0.31 99 1011.4
20240623014429 63 8 8.0 11.0 0.00 0.00 0.31 98 1011.3
20240623011926 64 322 7.0 9.0 0.00 0.00 0.30 98 1011.8
20240623005424 64 323 8.0 10.0 0.00 0.00 0.30 99 1011.5